Flag for U.S.A. Weather past 2 weeks in Sheboygan, Wisconsin, U.S.A.

Now
28 °F

Passing clouds.


Feels Like: 23 °F
Forecast: 28 / 38 °F
Wind: 5 mph from Southeast

Location: Sheboygan County Memorial Airport


UV Index: 0 (Low)

Visibility: 10 mi


Pressure: 30.28 "Hg

Humidity: 85%

Dew point: 24 °F

Location of SheboyganLocation

Historic Weather in Sheboygan

°F

Sheboygan temperature yesterday

Maximum temperature yesterday: 33 °F (at 1:53 PM)
Minimum temperature yesterday: 20 °F (at 4:53 AM)
Average temperature yesterday: 27 °F

Past Weeks' High & Low Weather Summary

 TemperatureHumidityPressure
High61 °F (Apr 10, 5:53 PM)100% (Apr 4, 5:53 AM)30.27 "Hg (Apr 4, 5:53 AM)
Low20 °F (Apr 15, 4:53 AM)20% (Apr 10, 4:53 PM)29.43 "Hg (Apr 4, 10:01 AM)
Average39 °F73%29.90 "Hg
* Reported Apr 1 4:53 AM — Apr 16 4:53 AM, Sheboygan, Weather by CustomWeather, © 2014

Note: Actual official high and low records may vary slightly from our data, if they occured in-between our weather recording intervals... More about our weather records

Advertising

Historic Weather Conditions — Data for Previous 24 hours

 ConditionsComfort  
Time TempWeatherWind HumidityBarometerVisibility
4:53 AM
Apr 16
25 °FPassing clouds.No wind88%30.27 "Hg10 mi
3:53 AM24 °FMostly cloudy.No wind88%30.26 "Hg10 mi
2:53 AM25 °FClear.No wind88%30.26 "Hg10 mi
1:53 AM25 °FClear.3 mph88%30.25 "Hg10 mi
12:53 AM26 °FClear.No wind84%30.24 "Hg10 mi
11:53 PM
Apr 15
26 °FClear.3 mph81%30.24 "Hg10 mi
10:53 PM26 °FClear.5 mph77%30.23 "Hg10 mi
9:53 PM25 °FClear.No wind81%30.22 "Hg10 mi
8:53 PM28 °FPassing clouds.No wind69%30.21 "Hg10 mi
7:53 PM30 °FPartly sunny.6 mph64%30.18 "Hg10 mi
5:53 PM33 °FPartly sunny.10 mph56%30.15 "Hg10 mi
4:53 PM32 °FPartly sunny.12 mph50%30.14 "Hg10 mi
3:53 PM32 °FPartly sunny.16 mph56%30.13 "Hg10 mi
2:53 PM31 °FMostly cloudy.12 mph54%30.14 "Hg10 mi
1:53 PM33 °FPartly sunny.16 mph52%30.14 "Hg10 mi
12:53 PM29 °FPartly sunny.12 mph51%30.14 "Hg10 mi
11:53 AM29 °FMostly cloudy.10 mph54%30.14 "Hg10 mi
10:53 AM29 °FScattered clouds.8 mph51%30.14 "Hg10 mi
9:53 AM27 °FSunny.10 mph58%30.12 "Hg10 mi
8:53 AM26 °FSunny.10 mph63%30.11 "Hg10 mi
7:53 AM23 °FSunny.6 mph74%30.11 "Hg10 mi
6:53 AM20 °FClear.5 mph82%30.09 "Hg10 mi
Weather by CustomWeather, © 2014

See weather overview